カタログに戻る

COSMOS 1188 DEB

LostHEO
NORAD 26917·DEBRIS·🇷🇺 Russia

打ち上げ Jun 14, 1980 から Plesetsk Cosmodrome

Loading…

次のパス (今後24時間)

TLE

古いSource: Space-Track

元期: Nov 13, 2018, 08:06 UTC

1 26917U 80050H   18317.33762798  .00000024  00000-0  00000+0 0  9998
2 26917  74.1945  15.3846 5172291 287.0541  24.3513  1.89513729125009

AllMySatでCOSMOS 1188 DEBをリアルタイム追跡

Download on the App Store